Weather Roundup
Issued by NWS Chicago, IL

Home | Current Version | Previous Version | Text Only | Print | Product List | Glossary Off
Versions: 1 2 3 4 5 6 7 8 9 10 11 12 13 14 15 16 17 18 19 20 21 22 23 24 25 26 27 28 29 30 31 32 33 34 35 36 37 38 39 40 41 42 43 44 45 46 47 48 49 50

536
NZUS59 KLOT 250603
HRRLOT

CHICAGO AREA WEATHER ROUNDUP
NATIONAL WEATHER SERVICE CHICAGO/ROMEOVILLE IL
100 AM CDT MON JUL 25 2016

NOTE: "FAIR" INDICATES FEW OR NO CLOUDS BELOW 12,000 FEET WITH NO
SIGNIFICANT WEATHER AND/OR OBSTRUCTIONS TO VISIBILITY.

* THESE STATIONS ARE NOT UNDER NWS QUALITY CONTROL. THEY ALSO MAY NOT
  REPORT WEATHER SUCH AS PRECIPITATION OR FOG.

ILZ005-006-012>014-019>023-250700-
NORTHEAST ILLINOIS

CITY           SKY/WX    TMP DP  RH WIND       PRES   REMARKS
OHARE          CLOUDY    75  68  78 SW8       29.96R
6HR MIN TEMP:  73; 6HR MAX TEMP:  79;

MIDWAY         CLOUDY    75  65  70 SW10      29.96R
6HR MIN TEMP:  74; 6HR MAX TEMP:  78; 6HR PCP:  0.14;

AURORA         CLOUDY    74  69  85 S6        29.98R
6HR MIN TEMP:  74; 6HR MAX TEMP:  88;

LANSING*       LGT RAIN  73  67  82 SW12G17   29.97R
WAUKEGAN       CLOUDY    77  72  84 VRB3      29.94R
6HR MIN TEMP:  76; 6HR MAX TEMP:  87;

DUPAGE AIRPORT CLOUDY    74  67  78 S8        29.97R
6HR MIN TEMP:  74; 6HR MAX TEMP:  84;

WHEELING       CLOUDY    77  66  68 SW10      29.97R
6HR MIN TEMP:  75; 6HR MAX TEMP:  79; 6HR PCP: TRACE;

KANKAKEE*      LGT RAIN  71  66  84 SE10G17   29.98S
MORRIS*        CLOUDY    72  68  87 SW8       29.97R
NORTHERLY ISL    N/A     76  63  64 SW10        N/A
$$

WIZ051-052-058>065-066-070>072-250700-
SOUTHEAST WISCONSIN

CITY           SKY/WX    TMP DP  RH WIND       PRES   REMARKS
MILWAUKEE      CLOUDY    81  66  60 W9        29.92R HX  83
6HR MIN TEMP:  81; 6HR MAX TEMP:  92;

KENOSHA*       CLOUDY    75  68  78 SW5       29.95R
RACINE*        CLOUDY    77  67  71 W3        29.95R
BURLINGTON     CLOUDY    73  69  88 SW3       29.94R
WAUKESHA       CLOUDY    73  64  73 W7        29.95R
$$

INZ001>003-010>013-019-020-250700-
NORTHWEST INDIANA

CITY           SKY/WX    TMP DP  RH WIND       PRES   REMARKS
GARY*          CLOUDY    75  75 100 SW3       29.97R
6HR MIN TEMP:  68; 6HR MAX TEMP:  90; 6HR PCP:  0.52;

MICHIGAN CITY* NOT AVBL
RENSSELAER*    NOT AVBL
VALPARAISO     LGT RAIN  71  68  90 S8        29.97F
$$

LMZ740>746-250700-
SOUTHERN LAKE MICHIGAN

STATION/POSITION TIME  SKY/WX   TEMP WIND        PRES    VSBY
                                AIR  DIR/SP/G
                 (UTC)          (F)  (DEG/KT/KT) (MB)    (MI)
HARRISON CRIB    0520            76  210/ 21/ 24   N/A
BURNHAM HARBOR   0600            76  190/  8/ 11   N/A
CALUMET HARBOR   0500            75  180/ 10/ 16 1013.2R
BURNS HARBOR     0500            74  190/ 18/ 22 1014.2R
MICHIGAN CITY    0500            75  160/ 13/ 19   N/A
$$

ABBREVIATIONS USED IN REMARKS
   TC - TEMPERATURE IN CELSIUS
  WCI - WIND CHILL INDEX
   HX - HEAT INDEX
  VSB - VISIBILITY
$$




USA.gov is the U.S. government's official web portal to all federal, state and local government web resources and services.